NOZ8UD LGSA-ENGM

Flight info

Callsign NOZ8UD
Flight time 3h 47m
Altitude 360
Route SOKRI1S SOKRI UY151 DDM DCT IXONI DCT VARDI DCT DIMIS DCT ODRAS DCT TORTO DCT TONDO DCT TURIS/N0436F380 DCT MAKAL DCT DESEN DCT GOSOT DCT SABAK DCT LUNIP LUNIP4L
Aircraft B738/L-VGDW/C

Departure

Time 2026-05-06 18:32
Airport Chania International Airport (LGSA)

Arrival

Time 2026-05-06 22:19
Airport Oslo-Gardermoen International Airport (ENGM)
Time Latitude Longitude Altitude Speed Heading
2026-05-06 17:46 35.53785 24.14343 497 ft 0 kts 22°
2026-05-06 18:22 35.53776 24.14338 486 ft 4 kts 22°
2026-05-06 18:23 35.53751 24.14326 494 ft 4 kts 20°
2026-05-06 18:23 35.53729 24.14316 492 ft 3 kts 20°
2026-05-06 18:23 35.53710 24.14315 486 ft 4 kts 310°
2026-05-06 18:23 35.53697 24.14344 497 ft 4 kts 290°
2026-05-06 18:24 35.53695 24.14352 497 ft 4 kts 291°
2026-05-06 18:27 35.53696 24.14347 497 ft 2 kts 291°
2026-05-06 18:28 35.53710 24.14296 486 ft 9 kts 287°
2026-05-06 18:28 35.53733 24.14224 497 ft 10 kts 292°
2026-05-06 18:28 35.53764 24.14130 496 ft 15 kts 292°
2026-05-06 18:28 35.53790 24.14024 497 ft 9 kts 247°
2026-05-06 18:29 35.53729 24.13987 494 ft 7 kts 204°
2026-05-06 18:29 35.53704 24.13932 495 ft 12 kts 279°
2026-05-06 18:29 35.53742 24.13803 489 ft 20 kts 291°
2026-05-06 18:29 35.53793 24.13648 493 ft 19 kts 291°
2026-05-06 18:30 35.53827 24.13524 493 ft 7 kts 263°
2026-05-06 18:30 35.53771 24.13482 497 ft 12 kts 204°
2026-05-06 18:30 35.53687 24.13446 494 ft 9 kts 199°
2026-05-06 18:30 35.53663 24.13476 497 ft 1 kts 108°
2026-05-06 18:31 35.53660 24.13486 491 ft 2 kts 110°
2026-05-06 18:31 35.53600 24.13673 496 ft 58 kts 111°
2026-05-06 18:31 35.53363 24.14404 490 ft 124 kts 111°
2026-05-06 18:31 35.52980 24.15611 530 ft 175 kts 112°
2026-05-06 18:32 35.52472 24.17080 1006 ft 195 kts 114°
2026-05-06 18:32 35.51898 24.18579 1952 ft 190 kts 115°
2026-05-06 18:32 35.51351 24.20061 2698 ft 199 kts 115°
2026-05-06 18:32 35.50866 24.21753 2887 ft 223 kts 94°
2026-05-06 18:33 35.51257 24.23609 3177 ft 233 kts 55°
2026-05-06 18:33 35.52219 24.25220 3716 ft 235 kts 52°
2026-05-06 18:33 35.53452 24.26509 4216 ft 238 kts 19°
2026-05-06 18:33 35.55055 24.26689 4781 ft 236 kts 349°
2026-05-06 18:34 35.56557 24.25905 5262 ft 239 kts 319°
2026-05-06 18:34 35.57741 24.24473 5804 ft 240 kts 314°
2026-05-06 18:34 35.58935 24.22996 6334 ft 246 kts 315°
2026-05-06 18:34 35.60135 24.21513 7024 ft 243 kts 315°
2026-05-06 18:35 35.61324 24.20042 7684 ft 243 kts 315°
2026-05-06 18:35 35.62524 24.18558 8283 ft 245 kts 315°
2026-05-06 18:35 35.63730 24.17067 8845 ft 251 kts 315°
2026-05-06 18:35 35.65019 24.15473 9016 ft 272 kts 315°
2026-05-06 18:36 35.66379 24.13793 9487 ft 281 kts 315°
2026-05-06 18:36 35.67767 24.12078 10136 ft 284 kts 315°
2026-05-06 18:36 35.69159 24.10357 10796 ft 284 kts 315°
2026-05-06 18:36 35.70552 24.08633 11447 ft 284 kts 315°
2026-05-06 18:37 35.71968 24.06881 11865 ft 295 kts 315°
2026-05-06 18:37 35.73427 24.05075 12409 ft 299 kts 315°
2026-05-06 18:37 35.74897 24.03253 13076 ft 300 kts 315°
2026-05-06 18:37 35.76368 24.01429 13733 ft 301 kts 315°
2026-05-06 18:38 35.77846 23.99596 14328 ft 303 kts 315°
2026-05-06 18:38 35.79338 23.97744 14863 ft 306 kts 315°
2026-05-06 18:38 35.80842 23.95876 15404 ft 308 kts 315°
2026-05-06 18:38 35.82355 23.93995 15954 ft 311 kts 315°
2026-05-06 18:39 35.83888 23.92090 16474 ft 314 kts 315°
2026-05-06 18:39 35.85427 23.90175 17017 ft 316 kts 315°
2026-05-06 18:39 35.86983 23.88238 17556 ft 319 kts 314°
2026-05-06 18:40 35.90130 23.84316 18579 ft 324 kts 314°
2026-05-06 18:40 35.91721 23.82332 19033 ft 327 kts 314°
2026-05-06 18:40 35.93329 23.80325 19475 ft 330 kts 314°
2026-05-06 18:40 35.94948 23.78303 19908 ft 333 kts 315°
2026-05-06 18:41 35.96579 23.76266 20377 ft 335 kts 315°
2026-05-06 18:41 35.98222 23.74212 20787 ft 338 kts 315°
2026-05-06 18:41 35.99889 23.72138 21208 ft 341 kts 316°
2026-05-06 18:41 36.01692 23.70208 21635 ft 344 kts 322°
2026-05-06 18:42 36.03597 23.68401 22057 ft 347 kts 323°
2026-05-06 18:42 36.05537 23.66607 22474 ft 350 kts 323°
2026-05-06 18:42 36.07486 23.64793 22891 ft 352 kts 323°
2026-05-06 18:42 36.09443 23.62947 23304 ft 355 kts 322°
2026-05-06 18:43 36.11404 23.61077 23698 ft 358 kts 322°
2026-05-06 18:43 36.13375 23.59184 24064 ft 359 kts 322°
2026-05-06 18:43 36.15325 23.57305 24415 ft 361 kts 322°
2026-05-06 18:43 36.17334 23.55364 24757 ft 363 kts 322°
2026-05-06 18:44 36.19302 23.53463 25113 ft 364 kts 322°
2026-05-06 18:44 36.21303 23.51528 25462 ft 366 kts 322°
2026-05-06 18:44 36.23315 23.49588 25805 ft 367 kts 323°
2026-05-06 18:44 36.25500 23.47935 26107 ft 370 kts 334°
2026-05-06 18:45 36.27903 23.46782 26459 ft 372 kts 343°
2026-05-06 18:45 36.30449 23.46132 26772 ft 375 kts 349°
2026-05-06 18:45 36.33034 23.45627 27091 ft 377 kts 349°
2026-05-06 18:45 36.35629 23.45120 27388 ft 379 kts 349°
2026-05-06 18:46 36.38236 23.44604 27698 ft 381 kts 349°
2026-05-06 18:46 36.40858 23.44076 28010 ft 382 kts 349°
2026-05-06 18:46 36.43488 23.43541 28304 ft 384 kts 348°
2026-05-06 18:46 36.46129 23.42998 28599 ft 386 kts 348°
2026-05-06 18:47 36.48783 23.42451 28883 ft 387 kts 348°
2026-05-06 18:47 36.51445 23.41900 29168 ft 389 kts 348°
2026-05-06 18:47 36.54123 23.41346 29443 ft 391 kts 348°
2026-05-06 18:47 36.56813 23.40788 29716 ft 392 kts 348°
2026-05-06 18:48 36.59516 23.40227 29991 ft 394 kts 348°
2026-05-06 18:48 36.62220 23.39666 30228 ft 396 kts 348°
2026-05-06 18:48 36.64942 23.39101 30465 ft 397 kts 348°
2026-05-06 18:48 36.67662 23.38536 30703 ft 397 kts 348°
2026-05-06 18:49 36.70394 23.37968 30939 ft 398 kts 348°
2026-05-06 18:49 36.73122 23.37400 31149 ft 399 kts 348°
2026-05-06 18:49 36.75875 23.36827 31367 ft 400 kts 348°
2026-05-06 18:49 36.78620 23.36255 31580 ft 401 kts 348°
2026-05-06 18:50 36.81374 23.35681 31809 ft 401 kts 348°
2026-05-06 18:50 36.84130 23.35106 32010 ft 403 kts 348°
2026-05-06 18:50 36.86899 23.34528 32196 ft 404 kts 348°
2026-05-06 18:50 36.89674 23.33949 32398 ft 404 kts 348°
2026-05-06 18:51 36.92450 23.33369 32589 ft 405 kts 348°
2026-05-06 18:51 36.95234 23.32787 32782 ft 406 kts 348°
2026-05-06 18:51 36.98024 23.32203 32966 ft 407 kts 348°
2026-05-06 18:51 37.00821 23.31617 33146 ft 408 kts 348°
2026-05-06 18:52 37.03622 23.31030 33315 ft 409 kts 348°
2026-05-06 18:52 37.06431 23.30440 33510 ft 409 kts 348°
2026-05-06 18:52 37.09234 23.29852 33677 ft 410 kts 348°
2026-05-06 18:52 37.12050 23.29261 33835 ft 411 kts 348°
2026-05-06 18:53 37.14879 23.28671 33986 ft 412 kts 348°
2026-05-06 18:53 37.17705 23.28083 34133 ft 413 kts 348°
2026-05-06 18:53 37.20537 23.27487 34256 ft 414 kts 348°
2026-05-06 18:53 37.23383 23.26885 34367 ft 415 kts 348°
2026-05-06 18:54 37.26229 23.26283 34483 ft 416 kts 348°
2026-05-06 18:54 37.29085 23.25678 34592 ft 417 kts 347°
2026-05-06 18:54 37.31946 23.25072 34712 ft 418 kts 347°
2026-05-06 18:54 37.34819 23.24464 34818 ft 419 kts 347°
2026-05-06 18:55 37.37696 23.23855 34917 ft 420 kts 347°
2026-05-06 18:55 37.43473 23.22625 35119 ft 422 kts 346°
2026-05-06 18:55 37.46284 23.21626 35184 ft 420 kts 335°
2026-05-06 18:56 37.48889 23.19983 35300 ft 417 kts 326°
2026-05-06 18:56 37.53332 23.15401 35486 ft 417 kts 315°
2026-05-06 18:57 37.57570 23.10393 35659 ft 419 kts 316°
2026-05-06 18:57 37.59710 23.07883 35761 ft 420 kts 316°
2026-05-06 18:57 37.61849 23.05383 35856 ft 421 kts 316°
2026-05-06 18:57 37.64001 23.02872 35966 ft 421 kts 316°
2026-05-06 18:58 37.66152 23.00365 36047 ft 421 kts 316°
2026-05-06 18:58 37.70473 22.95325 36069 ft 424 kts 316°
2026-05-06 18:59 37.74816 22.90251 36079 ft 427 kts 316°
2026-05-06 18:59 37.79181 22.85143 36080 ft 429 kts 316°
2026-05-06 19:00 37.83566 22.80003 36077 ft 430 kts 316°
2026-05-06 19:00 37.87953 22.74851 36077 ft 430 kts 316°
2026-05-06 19:01 37.92332 22.69701 36075 ft 429 kts 316°
2026-05-06 19:01 37.96692 22.64563 36073 ft 427 kts 315°
2026-05-06 19:02 38.01027 22.59446 36083 ft 424 kts 315°
2026-05-06 19:02 38.05338 22.54348 36094 ft 423 kts 315°
2026-05-06 19:03 38.09627 22.49269 36090 ft 421 kts 315°
2026-05-06 19:03 38.13901 22.44197 36079 ft 420 kts 315°
2026-05-06 19:04 38.18160 22.39135 36084 ft 418 kts 315°
2026-05-06 19:04 38.22365 22.34129 36090 ft 417 kts 315°
2026-05-06 19:05 38.26593 22.29087 36091 ft 416 kts 315°
2026-05-06 19:05 38.30825 22.24050 36097 ft 417 kts 317°
2026-05-06 19:06 38.35633 22.19905 36111 ft 419 kts 327°
2026-05-06 19:06 38.40634 22.16059 36097 ft 420 kts 327°
2026-05-06 19:07 38.45628 22.12145 36100 ft 421 kts 326°
2026-05-06 19:07 38.50628 22.08205 36107 ft 423 kts 326°
2026-05-06 19:08 38.55653 22.04240 36107 ft 426 kts 326°
2026-05-06 19:08 38.60704 22.00249 36101 ft 428 kts 326°
2026-05-06 19:09 38.65777 21.96236 36101 ft 429 kts 326°
2026-05-06 19:09 38.70709 21.91931 36111 ft 429 kts 322°
2026-05-06 19:10 38.75487 21.87360 36109 ft 428 kts 321°
2026-05-06 19:10 38.80249 21.82789 36104 ft 427 kts 321°
2026-05-06 19:11 38.85003 21.78254 36106 ft 425 kts 322°
2026-05-06 19:11 38.89739 21.73747 36109 ft 423 kts 322°
2026-05-06 19:12 38.94453 21.69258 36100 ft 420 kts 322°
2026-05-06 19:12 38.98340 21.65551 36101 ft 417 kts 322°
2026-05-06 19:13 39.02981 21.61117 36110 ft 414 kts 322°
2026-05-06 19:13 39.07598 21.56698 36100 ft 412 kts 322°
2026-05-06 19:14 39.12187 21.52299 36113 ft 411 kts 322°
2026-05-06 19:14 39.16764 21.47903 36114 ft 411 kts 322°
2026-05-06 19:15 39.21352 21.43491 36106 ft 411 kts 322°
2026-05-06 19:15 39.25933 21.39077 36115 ft 412 kts 322°
2026-05-06 19:16 39.30534 21.34637 36119 ft 413 kts 322°
2026-05-06 19:16 39.35148 21.30176 36120 ft 415 kts 322°
2026-05-06 19:17 39.39771 21.25699 36106 ft 416 kts 322°
2026-05-06 19:17 39.44411 21.21199 36116 ft 417 kts 322°
2026-05-06 19:18 39.49052 21.16690 36124 ft 418 kts 322°
2026-05-06 19:18 39.53710 21.12156 36106 ft 419 kts 322°
2026-05-06 19:19 39.58364 21.07620 36123 ft 418 kts 322°
2026-05-06 19:19 39.63006 21.03086 36131 ft 418 kts 321°
2026-05-06 19:20 39.67647 20.98546 36122 ft 417 kts 321°
2026-05-06 19:20 39.72232 20.94052 36128 ft 415 kts 321°
2026-05-06 19:21 39.76823 20.89545 36132 ft 413 kts 321°
2026-05-06 19:21 39.81403 20.85041 36125 ft 412 kts 321°
2026-05-06 19:22 39.85966 20.80546 36125 ft 411 kts 321°
2026-05-06 19:22 39.90507 20.76064 36121 ft 410 kts 321°
2026-05-06 19:23 39.95045 20.71578 36112 ft 409 kts 321°
2026-05-06 19:23 39.99568 20.67099 36110 ft 408 kts 321°
2026-05-06 19:24 40.04088 20.62618 36089 ft 408 kts 322°
2026-05-06 19:24 40.09099 20.59097 36101 ft 412 kts 337°
2026-05-06 19:25 40.14702 20.57340 36110 ft 415 kts 345°
2026-05-06 19:25 40.20368 20.55822 36102 ft 416 kts 345°
2026-05-06 19:26 40.26053 20.54260 36101 ft 418 kts 344°
2026-05-06 19:26 40.31758 20.52675 36103 ft 420 kts 344°
2026-05-06 19:27 40.37476 20.51081 36076 ft 420 kts 344°
2026-05-06 19:27 40.43195 20.49484 36093 ft 421 kts 344°
2026-05-06 19:28 40.48922 20.47883 36105 ft 420 kts 344°
2026-05-06 19:28 40.54650 20.46277 36092 ft 421 kts 344°
2026-05-06 19:29 40.60373 20.44671 36107 ft 421 kts 344°
2026-05-06 19:29 40.66103 20.43061 36106 ft 420 kts 344°
2026-05-06 19:30 40.71779 20.41463 36105 ft 419 kts 343°
2026-05-06 19:30 40.77517 20.39843 36090 ft 420 kts 343°
2026-05-06 19:31 40.83199 20.38237 36098 ft 420 kts 343°
2026-05-06 19:31 40.91791 20.35804 36081 ft 421 kts 343°
2026-05-06 19:32 40.97519 20.34179 36084 ft 420 kts 343°
2026-05-06 19:32 41.03232 20.32554 36089 ft 420 kts 343°
2026-05-06 19:33 41.08944 20.30926 36091 ft 420 kts 343°
2026-05-06 19:33 41.14663 20.29294 36092 ft 420 kts 343°
2026-05-06 19:34 41.20380 20.27660 36086 ft 420 kts 343°
2026-05-06 19:34 41.26082 20.26027 36081 ft 419 kts 343°
2026-05-06 19:35 41.31767 20.24396 36092 ft 417 kts 343°
2026-05-06 19:35 41.37431 20.22768 36097 ft 416 kts 343°
2026-05-06 19:36 41.43088 20.21139 36089 ft 416 kts 343°
2026-05-06 19:36 41.48734 20.19510 36095 ft 416 kts 343°
2026-05-06 19:37 41.54389 20.17876 36097 ft 416 kts 343°
2026-05-06 19:37 41.59122 20.16664 36092 ft 418 kts 346°
2026-05-06 19:38 41.65854 20.15329 36076 ft 419 kts 347°
2026-05-06 19:38 41.71620 20.14211 36091 ft 419 kts 346°
2026-05-06 19:39 41.77399 20.13056 36097 ft 419 kts 346°
2026-05-06 19:39 41.83133 20.11888 36085 ft 420 kts 346°
2026-05-06 19:40 41.88903 20.10707 36102 ft 420 kts 346°
2026-05-06 19:40 41.94725 20.09513 36087 ft 421 kts 346°
2026-05-06 19:41 42.00480 20.08331 36094 ft 422 kts 346°
2026-05-06 19:41 42.06335 20.07125 36084 ft 423 kts 346°
2026-05-06 19:42 42.12121 20.05933 36086 ft 424 kts 346°
2026-05-06 19:42 42.17948 20.04730 36081 ft 424 kts 346°
2026-05-06 19:43 42.23784 20.03521 36098 ft 425 kts 346°
2026-05-06 19:43 42.29630 20.02308 36087 ft 425 kts 346°
2026-05-06 19:44 42.35490 20.01088 36071 ft 426 kts 346°
2026-05-06 19:44 42.41333 19.99874 36081 ft 423 kts 346°
2026-05-06 19:45 42.47158 19.98662 36056 ft 423 kts 346°
2026-05-06 19:45 42.52971 19.97448 36065 ft 424 kts 346°
2026-05-06 19:46 42.58799 19.96227 36075 ft 424 kts 346°
2026-05-06 19:46 42.64647 19.95000 36075 ft 425 kts 345°
2026-05-06 19:47 42.70493 19.93773 36073 ft 425 kts 345°
2026-05-06 19:47 42.76352 19.92539 36066 ft 426 kts 345°
2026-05-06 19:48 42.82189 19.91307 36069 ft 425 kts 345°
2026-05-06 19:48 42.88046 19.90071 36053 ft 425 kts 345°
2026-05-06 19:49 42.93896 19.88832 36056 ft 426 kts 345°
2026-05-06 19:49 42.99749 19.87591 36042 ft 426 kts 345°
2026-05-06 19:50 43.05611 19.86344 36044 ft 427 kts 345°
2026-05-06 19:50 43.11483 19.85094 36036 ft 427 kts 345°
2026-05-06 19:51 43.17359 19.83840 36042 ft 428 kts 345°
2026-05-06 19:51 43.23215 19.82588 36026 ft 429 kts 345°
2026-05-06 19:52 43.29112 19.81325 36024 ft 430 kts 345°
2026-05-06 19:52 43.35017 19.80057 36019 ft 430 kts 345°
2026-05-06 19:53 43.40941 19.78784 36006 ft 431 kts 345°
2026-05-06 19:53 43.46860 19.77509 36024 ft 431 kts 345°
2026-05-06 19:54 43.52790 19.76229 36022 ft 431 kts 345°
2026-05-06 19:54 43.58721 19.74945 36015 ft 432 kts 345°
2026-05-06 19:55 43.64659 19.73658 36010 ft 432 kts 345°
2026-05-06 19:55 43.70630 19.72461 35989 ft 435 kts 347°
2026-05-06 19:56 43.76663 19.71574 35993 ft 437 kts 348°
2026-05-06 19:56 43.82711 19.70721 35988 ft 437 kts 348°
2026-05-06 19:57 43.88738 19.69832 35985 ft 439 kts 348°
2026-05-06 19:57 43.94849 19.68904 35990 ft 440 kts 348°
2026-05-06 19:58 44.00905 19.67975 35963 ft 442 kts 348°
2026-05-06 19:58 44.07020 19.67035 35964 ft 443 kts 348°
2026-05-06 19:59 44.13154 19.66092 35972 ft 444 kts 348°
2026-05-06 19:59 44.19299 19.65144 35965 ft 445 kts 348°
2026-05-06 20:00 44.25463 19.64192 35953 ft 445 kts 348°
2026-05-06 20:00 44.31625 19.63239 35961 ft 446 kts 348°
2026-05-06 20:01 44.36753 19.62443 35944 ft 447 kts 348°
2026-05-06 20:01 44.42933 19.61483 35946 ft 447 kts 348°
2026-05-06 20:02 44.49132 19.60518 35945 ft 448 kts 348°
2026-05-06 20:02 44.55322 19.59552 35941 ft 448 kts 348°
2026-05-06 20:03 44.61524 19.58582 35929 ft 448 kts 348°
2026-05-06 20:03 44.67713 19.57612 35926 ft 448 kts 347°
2026-05-06 20:04 44.73904 19.56640 35926 ft 447 kts 347°
2026-05-06 20:04 44.80071 19.55670 35920 ft 446 kts 347°
2026-05-06 20:05 44.86231 19.54698 35920 ft 445 kts 347°
2026-05-06 20:05 44.92370 19.53727 35918 ft 444 kts 347°
2026-05-06 20:06 44.98501 19.52756 35919 ft 443 kts 348°
2026-05-06 20:06 45.04622 19.51783 35917 ft 442 kts 348°
2026-05-06 20:07 45.10736 19.50810 35924 ft 443 kts 348°
2026-05-06 20:07 45.16815 19.49840 35919 ft 444 kts 348°
2026-05-06 20:08 45.22966 19.48856 35921 ft 445 kts 349°
2026-05-06 20:08 45.29119 19.47871 35920 ft 446 kts 349°
2026-05-06 20:09 45.35294 19.46879 35922 ft 448 kts 349°
2026-05-06 20:09 45.41500 19.45881 35917 ft 449 kts 349°
2026-05-06 20:10 45.47723 19.44878 35913 ft 451 kts 349°
2026-05-06 20:10 45.53974 19.43868 35922 ft 453 kts 349°
2026-05-06 20:11 45.60242 19.42853 35915 ft 454 kts 349°
2026-05-06 20:11 45.66531 19.41832 35916 ft 455 kts 349°
2026-05-06 20:12 45.72826 19.40808 35920 ft 456 kts 350°
2026-05-06 20:12 45.79149 19.39778 35915 ft 457 kts 350°
2026-05-06 20:13 45.85474 19.38744 35918 ft 457 kts 350°
2026-05-06 20:13 45.91795 19.37709 35919 ft 458 kts 350°
2026-05-06 20:14 45.98127 19.36669 35918 ft 458 kts 350°
2026-05-06 20:14 46.04456 19.35620 35920 ft 457 kts 349°
2026-05-06 20:15 46.10643 19.33739 35925 ft 454 kts 342°
2026-05-06 20:15 46.16771 19.31480 35920 ft 454 kts 342°
2026-05-06 20:16 46.22868 19.29258 35916 ft 455 kts 342°
2026-05-06 20:16 46.29052 19.27058 35921 ft 455 kts 343°
2026-05-06 20:17 46.35170 19.24903 35918 ft 455 kts 343°
2026-05-06 20:17 46.41321 19.22734 35918 ft 456 kts 343°
2026-05-06 20:18 46.47483 19.20554 35917 ft 456 kts 343°
2026-05-06 20:18 46.53651 19.18367 35914 ft 456 kts 343°
2026-05-06 20:19 46.59818 19.16174 35918 ft 456 kts 343°
2026-05-06 20:19 46.65978 19.13978 35913 ft 456 kts 343°
2026-05-06 20:20 46.72148 19.11774 35917 ft 456 kts 343°
2026-05-06 20:20 46.78302 19.09570 35910 ft 456 kts 343°
2026-05-06 20:21 46.84452 19.07363 35912 ft 455 kts 343°
2026-05-06 20:21 46.90614 19.05146 35906 ft 455 kts 343°
2026-05-06 20:22 46.96764 19.02928 35910 ft 455 kts 342°
2026-05-06 20:22 47.02874 19.00719 35909 ft 455 kts 342°
2026-05-06 20:23 47.09020 18.98491 35907 ft 455 kts 342°
2026-05-06 20:23 47.15173 18.96257 35909 ft 455 kts 342°
2026-05-06 20:24 47.21327 18.94016 35908 ft 456 kts 342°
2026-05-06 20:24 47.27479 18.91771 35913 ft 456 kts 342°
2026-05-06 20:25 47.33643 18.89515 35914 ft 456 kts 342°
2026-05-06 20:25 47.39795 18.87259 35917 ft 457 kts 342°
2026-05-06 20:26 47.45979 18.84986 35904 ft 458 kts 342°
2026-05-06 20:26 47.52165 18.82706 35910 ft 458 kts 342°
2026-05-06 20:27 47.58357 18.80419 35891 ft 459 kts 342°
2026-05-06 20:27 47.64561 18.78121 35883 ft 459 kts 342°
2026-05-06 20:28 47.70761 18.75820 35890 ft 459 kts 342°
2026-05-06 20:28 47.76913 18.73531 35882 ft 459 kts 342°
2026-05-06 20:29 47.83108 18.71220 35885 ft 458 kts 342°
2026-05-06 20:29 47.89282 18.68911 35870 ft 458 kts 342°
2026-05-06 20:30 47.98538 18.65439 35869 ft 457 kts 342°
2026-05-06 20:31 48.04692 18.63124 35872 ft 456 kts 342°
2026-05-06 20:31 48.10836 18.60806 35871 ft 455 kts 342°
2026-05-06 20:32 48.16965 18.58488 35872 ft 455 kts 342°
2026-05-06 20:32 48.23108 18.56159 35867 ft 455 kts 342°
2026-05-06 20:33 48.29246 18.53826 35863 ft 455 kts 342°
2026-05-06 20:33 48.35381 18.51489 35864 ft 455 kts 342°
2026-05-06 20:34 48.41513 18.49138 35864 ft 456 kts 341°
2026-05-06 20:34 48.47659 18.46765 35861 ft 456 kts 341°
2026-05-06 20:35 48.53815 18.44383 35862 ft 457 kts 341°
2026-05-06 20:35 48.59980 18.41992 35856 ft 458 kts 341°
2026-05-06 20:36 48.66146 18.39596 35859 ft 458 kts 341°
2026-05-06 20:36 48.72327 18.37188 35854 ft 459 kts 341°
2026-05-06 20:37 48.78479 18.34785 35850 ft 460 kts 341°
2026-05-06 20:37 48.84680 18.32357 35849 ft 460 kts 341°
2026-05-06 20:38 48.90886 18.29920 35834 ft 460 kts 341°
2026-05-06 20:38 48.97087 18.27480 35833 ft 460 kts 341°
2026-05-06 20:39 49.03288 18.25033 35839 ft 460 kts 341°
2026-05-06 20:39 49.09490 18.22579 35839 ft 461 kts 341°
2026-05-06 20:40 49.15713 18.20109 35838 ft 464 kts 341°
2026-05-06 20:40 49.22003 18.17606 35841 ft 469 kts 341°
2026-05-06 20:41 49.28225 18.14590 35828 ft 468 kts 333°
2026-05-06 20:41 49.34254 18.10745 35817 ft 471 kts 332°
2026-05-06 20:42 49.40296 18.06857 35817 ft 472 kts 332°
2026-05-06 20:42 49.46385 18.03011 35814 ft 473 kts 333°
2026-05-06 20:43 49.52455 17.99211 35795 ft 474 kts 333°
2026-05-06 20:43 49.58556 17.95388 35803 ft 473 kts 332°
2026-05-06 20:44 49.64653 17.91553 35797 ft 473 kts 332°
2026-05-06 20:44 49.70739 17.87713 35801 ft 472 kts 332°
2026-05-06 20:45 49.76814 17.83868 35807 ft 471 kts 332°
2026-05-06 20:45 49.82880 17.80017 35795 ft 471 kts 332°
2026-05-06 20:46 49.88944 17.76158 35796 ft 471 kts 332°
2026-05-06 20:46 49.95002 17.72292 35789 ft 471 kts 332°
2026-05-06 20:47 50.01073 17.68407 35790 ft 471 kts 331°
2026-05-06 20:47 50.07132 17.64520 35788 ft 472 kts 331°
2026-05-06 20:48 50.13197 17.60618 35794 ft 472 kts 331°
2026-05-06 20:48 50.19268 17.56700 35789 ft 472 kts 331°
2026-05-06 20:49 50.25335 17.52776 35791 ft 472 kts 331°
2026-05-06 20:49 50.31504 17.49114 35791 ft 476 kts 335°
2026-05-06 20:50 50.37798 17.45861 35794 ft 477 kts 336°
2026-05-06 20:50 50.44108 17.42627 35796 ft 477 kts 335°
2026-05-06 20:51 50.50369 17.39348 35798 ft 477 kts 335°
2026-05-06 20:51 50.56658 17.36007 35802 ft 478 kts 335°
2026-05-06 20:52 50.61946 17.33182 35804 ft 478 kts 335°
2026-05-06 20:52 50.69276 17.29257 35804 ft 479 kts 335°
2026-05-06 20:53 50.74563 17.26419 35808 ft 480 kts 335°
2026-05-06 20:53 50.80882 17.23020 35798 ft 480 kts 335°
2026-05-06 20:54 50.87173 17.19626 35794 ft 481 kts 335°
2026-05-06 20:54 50.93509 17.16199 35799 ft 481 kts 335°
2026-05-06 20:55 50.99840 17.12763 35807 ft 481 kts 335°
2026-05-06 20:55 51.06179 17.09314 35805 ft 482 kts 335°
2026-05-06 20:56 51.12527 17.05849 35809 ft 482 kts 335°
2026-05-06 20:56 51.18871 17.02377 35806 ft 482 kts 336°
2026-05-06 20:57 51.25202 16.98902 35810 ft 483 kts 335°
2026-05-06 20:57 51.31565 16.95400 35807 ft 483 kts 335°
2026-05-06 20:58 51.37913 16.91895 35802 ft 482 kts 335°
2026-05-06 20:58 51.44247 16.88387 35812 ft 482 kts 335°
2026-05-06 20:59 51.50571 16.84875 35809 ft 481 kts 335°
2026-05-06 20:59 51.56898 16.81350 35816 ft 480 kts 335°
2026-05-06 21:00 51.63211 16.77824 35816 ft 480 kts 335°
2026-05-06 21:00 51.69510 16.74294 35813 ft 479 kts 335°
2026-05-06 21:01 51.75814 16.70751 35815 ft 479 kts 335°
2026-05-06 21:01 51.82102 16.67206 35818 ft 479 kts 335°
2026-05-06 21:02 51.88388 16.63653 35817 ft 478 kts 335°
2026-05-06 21:02 51.94672 16.60089 35831 ft 478 kts 335°
2026-05-06 21:03 52.00956 16.56515 35827 ft 479 kts 335°
2026-05-06 21:03 52.07239 16.52931 35833 ft 479 kts 335°
2026-05-06 21:04 52.13515 16.49341 35828 ft 479 kts 335°
2026-05-06 21:04 52.19803 16.45733 35835 ft 479 kts 335°
2026-05-06 21:05 52.26093 16.42112 35834 ft 479 kts 335°
2026-05-06 21:05 52.32372 16.38488 35835 ft 479 kts 335°
2026-05-06 21:06 52.38645 16.34856 35834 ft 479 kts 335°
2026-05-06 21:06 52.44923 16.31209 35833 ft 479 kts 335°
2026-05-06 21:07 52.51157 16.27578 35838 ft 479 kts 335°
2026-05-06 21:07 52.57435 16.23909 35838 ft 479 kts 335°
2026-05-06 21:08 52.63716 16.20228 35837 ft 479 kts 335°
2026-05-06 21:08 52.70002 16.16532 35844 ft 480 kts 335°
2026-05-06 21:09 52.76294 16.12821 35844 ft 480 kts 335°
2026-05-06 21:09 52.82583 16.09102 35844 ft 481 kts 335°
2026-05-06 21:10 52.88893 16.05358 35849 ft 482 kts 335°
2026-05-06 21:10 52.95214 16.01596 35847 ft 482 kts 335°
2026-05-06 21:11 53.01528 15.97826 35857 ft 483 kts 335°
2026-05-06 21:11 53.07860 15.94034 35855 ft 484 kts 335°
2026-05-06 21:12 53.14196 15.90227 35860 ft 484 kts 335°
2026-05-06 21:12 53.20526 15.86413 35867 ft 484 kts 335°
2026-05-06 21:13 53.26866 15.82580 35873 ft 485 kts 335°
2026-05-06 21:13 53.33201 15.78738 35872 ft 485 kts 335°
2026-05-06 21:14 53.39543 15.74880 35872 ft 485 kts 335°
2026-05-06 21:14 53.45882 15.71012 35869 ft 484 kts 335°
2026-05-06 21:15 53.52213 15.67135 35888 ft 484 kts 335°
2026-05-06 21:15 53.58543 15.63247 35886 ft 484 kts 335°
2026-05-06 21:16 53.64855 15.59357 35891 ft 483 kts 335°
2026-05-06 21:16 53.71177 15.55449 35901 ft 483 kts 335°
2026-05-06 21:17 53.77484 15.51538 35896 ft 483 kts 335°
2026-05-06 21:17 53.83785 15.47618 35902 ft 482 kts 335°
2026-05-06 21:18 53.90028 15.43722 35900 ft 481 kts 335°
2026-05-06 21:18 53.96303 15.39793 35907 ft 480 kts 335°
2026-05-06 21:19 54.02572 15.35839 35910 ft 480 kts 335°
2026-05-06 21:19 54.08825 15.31889 35911 ft 479 kts 335°
2026-05-06 21:20 54.15074 15.27947 35918 ft 479 kts 335°
2026-05-06 21:20 54.21322 15.23998 35920 ft 479 kts 335°
2026-05-06 21:21 54.27563 15.20038 35927 ft 479 kts 335°
2026-05-06 21:21 54.33673 15.16136 35926 ft 479 kts 335°
2026-05-06 21:22 54.40048 15.12050 35931 ft 479 kts 335°
2026-05-06 21:22 54.46295 15.08034 35934 ft 479 kts 335°
2026-05-06 21:23 54.52541 15.04007 35936 ft 479 kts 335°
2026-05-06 21:23 54.58776 14.99973 35933 ft 479 kts 335°
2026-05-06 21:24 54.65028 14.95916 35945 ft 479 kts 335°
2026-05-06 21:24 54.71268 14.91852 35950 ft 479 kts 335°
2026-05-06 21:25 54.77501 14.87781 35959 ft 479 kts 335°
2026-05-06 21:25 54.83662 14.83431 35958 ft 476 kts 330°
2026-05-06 21:26 54.89572 14.78289 35972 ft 474 kts 328°
2026-05-06 21:26 54.95419 14.73013 35970 ft 474 kts 328°
2026-05-06 21:27 55.01299 14.67792 35969 ft 474 kts 329°
2026-05-06 21:27 55.07188 14.62625 35966 ft 474 kts 329°
2026-05-06 21:28 55.13074 14.57469 35971 ft 473 kts 329°
2026-05-06 21:28 55.18956 14.52299 35968 ft 473 kts 329°
2026-05-06 21:29 55.24796 14.47146 35972 ft 473 kts 329°
2026-05-06 21:29 55.30663 14.41949 35976 ft 472 kts 329°
2026-05-06 21:30 55.36529 14.36735 35980 ft 472 kts 329°
2026-05-06 21:30 55.42388 14.31510 35981 ft 472 kts 329°
2026-05-06 21:31 55.48247 14.26268 35989 ft 472 kts 329°
2026-05-06 21:31 55.54097 14.21015 35987 ft 472 kts 329°
2026-05-06 21:32 55.59945 14.15748 35992 ft 472 kts 329°
2026-05-06 21:32 55.68710 14.07821 35998 ft 471 kts 329°
2026-05-06 21:33 55.74541 14.02523 35997 ft 471 kts 329°
2026-05-06 21:33 55.80358 13.97222 35999 ft 470 kts 329°
2026-05-06 21:34 55.86170 13.91907 35998 ft 469 kts 329°
2026-05-06 21:34 55.91975 13.86580 35997 ft 469 kts 328°
2026-05-06 21:35 55.97767 13.81247 35997 ft 468 kts 328°
2026-05-06 21:35 56.03550 13.75904 36002 ft 468 kts 328°
2026-05-06 21:36 56.09330 13.70546 35997 ft 468 kts 328°
2026-05-06 21:36 56.15105 13.65174 35998 ft 467 kts 328°
2026-05-06 21:37 56.20871 13.59792 36006 ft 467 kts 328°
2026-05-06 21:37 56.25668 13.55301 36004 ft 467 kts 328°
2026-05-06 21:38 56.31432 13.49887 36003 ft 467 kts 328°
2026-05-06 21:38 56.37193 13.44457 36003 ft 467 kts 328°
2026-05-06 21:39 56.42956 13.39007 36013 ft 467 kts 328°
2026-05-06 21:39 56.48718 13.33539 36003 ft 468 kts 328°
2026-05-06 21:40 56.54478 13.28055 35999 ft 468 kts 328°
2026-05-06 21:40 56.60239 13.22550 36005 ft 468 kts 327°
2026-05-06 21:41 56.65996 13.17030 35994 ft 468 kts 327°
2026-05-06 21:41 56.71759 13.11485 35996 ft 468 kts 327°
2026-05-06 21:42 56.77513 13.05929 35997 ft 467 kts 327°
2026-05-06 21:42 56.83251 13.00371 35991 ft 467 kts 327°
2026-05-06 21:43 56.88973 12.94807 35999 ft 465 kts 327°
2026-05-06 21:43 56.94683 12.89235 35995 ft 466 kts 327°
2026-05-06 21:44 57.00409 12.83626 35990 ft 467 kts 327°
2026-05-06 21:44 57.06105 12.78029 35989 ft 467 kts 327°
2026-05-06 21:45 57.11824 12.72391 35984 ft 467 kts 327°
2026-05-06 21:45 57.17544 12.66731 35985 ft 466 kts 326°
2026-05-06 21:46 57.23257 12.61058 35978 ft 466 kts 326°
2026-05-06 21:46 57.28958 12.55376 35982 ft 465 kts 326°
2026-05-06 21:47 57.34648 12.49685 35984 ft 465 kts 326°
2026-05-06 21:47 57.40330 12.43983 35976 ft 464 kts 326°
2026-05-06 21:48 57.46010 12.38261 35978 ft 464 kts 326°
2026-05-06 21:48 57.51677 12.32532 35976 ft 464 kts 326°
2026-05-06 21:49 57.57340 12.26787 35975 ft 464 kts 326°
2026-05-06 21:49 57.63000 12.21024 35971 ft 463 kts 326°
2026-05-06 21:50 57.68650 12.15252 35974 ft 463 kts 325°
2026-05-06 21:50 57.74307 12.09450 35993 ft 463 kts 325°
2026-05-06 21:51 57.79960 12.03633 35995 ft 463 kts 325°
2026-05-06 21:51 57.85600 11.97807 35992 ft 463 kts 325°
2026-05-06 21:52 57.91238 11.91963 35983 ft 463 kts 325°
2026-05-06 21:52 57.96876 11.86095 35733 ft 462 kts 325°
2026-05-06 21:53 57.99621 11.83242 35651 ft 448 kts 324°
2026-05-06 21:53 58.02300 11.80453 35591 ft 434 kts 324°
2026-05-06 21:53 58.04951 11.77683 35404 ft 424 kts 324°
2026-05-06 21:53 58.07477 11.75028 35086 ft 419 kts 324°
2026-05-06 21:54 58.10044 11.72323 34656 ft 416 kts 323°
2026-05-06 21:54 58.12537 11.69696 34257 ft 414 kts 323°
2026-05-06 21:54 58.15042 11.67056 33889 ft 410 kts 323°
2026-05-06 21:54 58.17619 11.64701 33451 ft 415 kts 332°
2026-05-06 21:55 58.20450 11.63176 32998 ft 422 kts 342°
2026-05-06 21:55 58.23344 11.62285 32602 ft 420 kts 343°
2026-05-06 21:55 58.26231 11.61437 32187 ft 418 kts 343°
2026-05-06 21:55 58.29062 11.60596 31789 ft 416 kts 343°
2026-05-06 21:56 58.31905 11.59732 31415 ft 413 kts 343°
2026-05-06 21:56 58.34726 11.58857 31043 ft 410 kts 343°
2026-05-06 21:56 58.37563 11.57963 30685 ft 407 kts 343°
2026-05-06 21:56 58.40312 11.57089 30332 ft 404 kts 342°
2026-05-06 21:57 58.43079 11.56173 29969 ft 401 kts 342°
2026-05-06 21:57 58.45811 11.55230 29566 ft 399 kts 342°
2026-05-06 21:57 58.48526 11.54278 29214 ft 395 kts 342°
2026-05-06 21:57 58.51221 11.53331 28859 ft 391 kts 342°
2026-05-06 21:58 58.53901 11.52387 28356 ft 393 kts 342°
2026-05-06 21:58 58.56599 11.51432 27760 ft 395 kts 342°
2026-05-06 21:58 58.59297 11.50483 27217 ft 394 kts 342°
2026-05-06 21:58 58.61984 11.49540 26697 ft 391 kts 342°
2026-05-06 21:59 58.64650 11.48606 26182 ft 389 kts 342°
2026-05-06 21:59 58.67313 11.47671 25674 ft 387 kts 342°
2026-05-06 21:59 58.69954 11.46743 25174 ft 385 kts 343°
2026-05-06 21:59 58.72582 11.45818 24698 ft 383 kts 343°
2026-05-06 22:00 58.75188 11.44899 24211 ft 380 kts 343°
2026-05-06 22:00 58.77793 11.43978 23738 ft 378 kts 343°
2026-05-06 22:00 58.80374 11.43065 23195 ft 376 kts 343°
2026-05-06 22:00 58.82939 11.42157 22659 ft 374 kts 343°
2026-05-06 22:01 58.85496 11.41249 22114 ft 372 kts 343°
2026-05-06 22:01 58.88028 11.40348 21569 ft 370 kts 343°
2026-05-06 22:01 58.90546 11.39453 21048 ft 368 kts 343°
2026-05-06 22:01 58.93061 11.38555 20524 ft 366 kts 343°
2026-05-06 22:02 58.95555 11.37664 20014 ft 363 kts 343°
2026-05-06 22:02 58.98036 11.36776 19521 ft 362 kts 343°
2026-05-06 22:02 59.00505 11.35890 19031 ft 360 kts 343°
2026-05-06 22:02 59.02959 11.35009 18546 ft 358 kts 343°
2026-05-06 22:03 59.05400 11.34133 18026 ft 356 kts 343°
2026-05-06 22:03 59.07833 11.33258 17503 ft 354 kts 343°
2026-05-06 22:03 59.10245 11.32389 16955 ft 353 kts 343°
2026-05-06 22:03 59.12658 11.31519 16434 ft 351 kts 343°
2026-05-06 22:04 59.15061 11.30650 15917 ft 350 kts 344°
2026-05-06 22:04 59.17447 11.29786 15406 ft 349 kts 344°
2026-05-06 22:04 59.19829 11.28922 14910 ft 348 kts 344°
2026-05-06 22:04 59.22179 11.28069 14421 ft 347 kts 344°
2026-05-06 22:05 59.24548 11.27208 13929 ft 346 kts 344°
2026-05-06 22:05 59.26912 11.26346 13399 ft 345 kts 345°
2026-05-06 22:05 59.29299 11.25476 12848 ft 344 kts 345°
2026-05-06 22:05 59.31648 11.24620 12387 ft 341 kts 345°
2026-05-06 22:06 59.33937 11.23785 11950 ft 338 kts 345°
2026-05-06 22:06 59.36253 11.22937 11478 ft 340 kts 345°
2026-05-06 22:06 59.38576 11.22085 11130 ft 339 kts 346°
2026-05-06 22:06 59.40878 11.21241 10862 ft 332 kts 346°
2026-05-06 22:07 59.43129 11.20416 10597 ft 326 kts 346°
2026-05-06 22:07 59.45337 11.19606 10339 ft 320 kts 346°
2026-05-06 22:07 59.47506 11.18808 10075 ft 313 kts 346°
2026-05-06 22:07 59.49619 11.18030 9824 ft 306 kts 346°
2026-05-06 22:08 59.51687 11.17267 9527 ft 297 kts 346°
2026-05-06 22:08 59.53683 11.16530 9239 ft 287 kts 346°
2026-05-06 22:08 59.55633 11.15807 8965 ft 283 kts 346°
2026-05-06 22:08 59.57556 11.15093 8708 ft 281 kts 346°
2026-05-06 22:09 59.59464 11.14383 8451 ft 277 kts 347°
2026-05-06 22:09 59.61355 11.13679 8193 ft 275 kts 347°
2026-05-06 22:09 59.63221 11.12983 7943 ft 272 kts 347°
2026-05-06 22:09 59.65070 11.12294 7695 ft 269 kts 347°
2026-05-06 22:10 59.66905 11.11609 7437 ft 267 kts 347°
2026-05-06 22:10 59.68718 11.10932 7191 ft 264 kts 347°
2026-05-06 22:10 59.70515 11.10260 6948 ft 262 kts 348°
2026-05-06 22:10 59.72292 11.09595 6703 ft 259 kts 348°
2026-05-06 22:11 59.74055 11.08935 6462 ft 257 kts 348°
2026-05-06 22:11 59.75810 11.08277 6208 ft 255 kts 348°
2026-05-06 22:11 59.77546 11.07626 5951 ft 253 kts 348°
2026-05-06 22:11 59.79270 11.06978 5702 ft 251 kts 348°
2026-05-06 22:12 59.80976 11.06336 5450 ft 249 kts 348°
2026-05-06 22:12 59.82650 11.05705 5212 ft 247 kts 348°
2026-05-06 22:12 59.84353 11.05064 4956 ft 246 kts 348°
2026-05-06 22:12 59.85993 11.04445 4720 ft 244 kts 348°
2026-05-06 22:13 59.87142 11.04012 4543 ft 243 kts 348°
2026-05-06 22:13 59.88817 11.03379 4288 ft 242 kts 348°
2026-05-06 22:13 59.90428 11.02770 4046 ft 240 kts 348°
2026-05-06 22:13 59.92095 11.02138 3786 ft 238 kts 349°
2026-05-06 22:14 59.93468 11.01618 3592 ft 237 kts 349°
2026-05-06 22:14 59.95093 11.01002 3496 ft 228 kts 349°
2026-05-06 22:14 59.96605 11.00428 3514 ft 212 kts 349°
2026-05-06 22:14 59.98029 10.99986 3471 ft 204 kts 359°
2026-05-06 22:15 59.99386 11.00452 3499 ft 194 kts 15°
2026-05-06 22:15 60.00664 11.01091 3487 ft 187 kts 12°
2026-05-06 22:15 60.01929 11.01741 3502 ft 188 kts 14°
2026-05-06 22:15 60.03129 11.02416 3474 ft 169 kts 15°
2026-05-06 22:16 60.04217 11.03043 3458 ft 161 kts 15°
2026-05-06 22:16 60.05312 11.03676 3310 ft 167 kts 15°
2026-05-06 22:16 60.06425 11.04321 3088 ft 166 kts 15°
2026-05-06 22:16 60.07529 11.04961 2858 ft 164 kts 15°
2026-05-06 22:17 60.08614 11.05590 2629 ft 160 kts 14°
2026-05-06 22:17 60.09676 11.06205 2423 ft 159 kts 14°
2026-05-06 22:17 60.10739 11.06820 2203 ft 159 kts 14°
2026-05-06 22:17 60.11788 11.07428 1977 ft 157 kts 14°
2026-05-06 22:18 60.12814 11.08022 1757 ft 152 kts 14°
2026-05-06 22:18 60.13820 11.08603 1528 ft 153 kts 14°
2026-05-06 22:18 60.14810 11.09177 1288 ft 154 kts 14°
2026-05-06 22:18 60.15845 11.09773 1099 ft 158 kts 16°
2026-05-06 22:19 60.16910 11.10400 848 ft 160 kts 15°
2026-05-06 22:19 60.17976 11.11007 682 ft 152 kts 15°
2026-05-06 22:19 60.18805 11.11485 678 ft 93 kts 16°
2026-05-06 22:19 60.19172 11.11686 682 ft 17 kts 14°
2026-05-06 22:20 60.19301 11.11686 682 ft 19 kts 347°
2026-05-06 22:20 60.19375 11.11526 680 ft 16 kts 287°
2026-05-06 22:20 60.19388 11.11441 681 ft 5 kts 287°
2026-05-06 22:20 60.19398 11.11379 679 ft 6 kts 287°
2026-05-06 22:21 60.19409 11.11304 679 ft 6 kts 286°
2026-05-06 22:21 60.19416 11.11256 682 ft 0 kts 285°
2026-05-06 22:21 60.19418 11.11235 682 ft 5 kts 286°
2026-05-06 22:21 60.19433 11.11133 682 ft 11 kts 287°
2026-05-06 22:22 60.19456 11.10969 682 ft 9 kts 285°
2026-05-06 22:22 60.19474 11.10839 682 ft 12 kts 285°
2026-05-06 22:22 60.19487 11.10753 682 ft 5 kts 286°
2026-05-06 22:22 60.19492 11.10715 682 ft 5 kts 286°
2026-05-06 22:23 60.19497 11.10682 681 ft 0 kts 286°
2026-05-06 22:23 60.19500 11.10664 682 ft 0 kts 286°
2026-05-06 22:23 60.19506 11.10620 682 ft 6 kts 287°
2026-05-06 22:23 60.19519 11.10538 682 ft 6 kts 287°
2026-05-06 22:24 60.19528 11.10465 682 ft 0 kts 284°
2026-05-06 22:24 60.19529 11.10459 682 ft 2 kts 284°
2026-05-06 22:24 60.19603 11.10171 681 ft 0 kts 286°
2026-05-06 22:24 60.19604 11.10168 681 ft 0 kts 286°